AO-07 1 07530U 74089B 20338.16822167 -.00000050 00000-0 -27698-4 0 9995 2 07530 101.8263 307.1107 0012488 39.8921 331.4618 12.53646300107130 UO-11 1 14781U 84021B 20338.48830236 .00000233 00000-0 34545-4 0 9999 2 14781 97.5895 342.0482 0008751 15.9075 344.2412 14.83219866977884 LO-19 1 20442U 90005G 20338.14068426 .00000021 00000-0 24274-4 0 9999 2 20442 98.7146 286.1219 0012222 23.4535 336.7204 14.32968951612719 HUBBLE 1 20580U 90037B 20338.14913771 .00000972 00000-0 48133-4 0 9994 2 20580 28.4702 283.8291 0002917 108.5033 271.3505 15.09498448481448 MET-2/21 1 22782U 93055A 20338.63183384 .00000076 00000-0 55109-4 0 9992 2 22782 82.5489 99.3311 0023539 119.4990 251.4974 13.83831806376717 AO-27 1 22825U 93061C 20338.47836672 .00000008 00000-0 21343-4 0 9992 2 22825 98.9249 345.2059 0007513 241.9655 118.0767 14.30099621418242 IO-26 1 22826U 93061D 20338.07534707 .00000012 00000-0 22535-4 0 9992 2 22826 98.9189 344.7211 0008152 230.0712 129.9754 14.30436678418157 FO-29 1 24278U 96046B 20338.20257011 .00000007 00000-0 46688-4 0 9995 2 24278 98.5885 65.9941 0349352 298.0211 58.5999 13.53100793199951 NOAA-15 1 25338U 98030A 20338.60577128 .00000033 00000-0 32520-4 0 9995 2 25338 98.7027 2.6792 0011254 127.7580 232.4621 14.26001911173337 GO-32 1 25397U 98043D 20337.90568743 .00000010 00000-0 23858-4 0 9998 2 25397 98.7477 278.2507 0000553 348.9656 11.1510 14.23696114163528 ISS 1 25544U 98067A 20338.68823061 .00004534 00000-0 89953-4 0 9994 2 25544 51.6467 229.7704 0001957 105.9035 346.6562 15.49147648258294 NO-44 1 26931U 01043C 20338.21694994 -.00000006 00000-0 29597-4 0 9992 2 26931 67.0525 66.8751 0007164 274.4725 85.5558 14.30597284 1189 SO-50 1 27607U 02058C 20338.38612368 .00000126 00000-0 38575-4 0 9991 2 27607 64.5551 217.8649 0030498 112.1049 248.3297 14.75686408965788 CO-55 1 27844U 03031E 20337.99229252 .00000092 00000-0 60942-4 0 9993 2 27844 98.6819 343.1852 0008881 289.8454 70.1766 14.22272677904054 CO-57 1 27848U 03031J 20338.49034652 .00000069 00000-0 51278-4 0 9997 2 27848 98.6881 344.2429 0008838 302.3983 57.6339 14.21855032903998 RS-22 1 27939U 03042A 20338.62140103 .00000325 00000-0 66781-4 0 9994 2 27939 98.1139 111.4447 0013217 173.2813 186.8578 14.66916458918814 NOAA-18 1 28654U 05018A 20338.52662375 .00000127 00000-0 93132-4 0 9993 2 28654 99.0228 36.3558 0015182 113.9562 246.3201 14.12561095800876 CO-58 1 28895U 05043F 20338.04896105 .00000308 00000-0 67718-4 0 9997 2 28895 98.0331 109.9299 0018029 108.4537 251.8627 14.63834596805277 Falconsat-3 1 30776U 07006E 20338.30322199 .00007749 00000-0 19716-3 0 9995 2 30776 35.4347 279.0691 0003935 270.6871 89.3405 15.38903623762853 CO-65 1 32785U 08021C 20337.79168039 .00000658 00000-0 76313-4 0 9997 2 32785 97.5899 318.5598 0011665 298.7553 61.2492 14.88574427682988 AAUSAT2 1 32788U 08021F 20337.96908049 .00001123 00000-0 10683-3 0 9997 2 32788 97.4962 335.0360 0010880 203.0330 157.0405 14.95271067684490 DO-64 1 32789U 08021G 20338.41514095 .00002649 00000-0 17478-3 0 9996 2 32789 97.3992 15.1750 0013568 96.3169 263.9605 15.08213923687372 CO-66 1 32791U 08021J 20337.96964706 .00000914 00000-0 97249-4 0 9994 2 32791 97.5538 324.8028 0011704 260.3214 99.6683 14.91194922683571 RS-30 1 32953U 08025A 20338.49261933 .00000028 00000-0 12906-3 0 9991 2 32953 82.5018 172.8004 0019840 45.4525 314.8172 12.43098967568630 PRISM 1 33493U 09002B 20337.61157021 .00002353 00000-0 20818-3 0 9996 2 33493 98.1637 285.0436 0013930 213.3517 146.6827 14.97286949644865 NOAA-19 1 33591U 09005A 20338.75548894 .00000047 00000-0 51006-4 0 9998 2 33591 99.1941 348.5046 0013428 324.6026 35.4253 14.12442019609293 TISAT-1 1 36799U 10035E 20338.23782071 .00001087 00000-0 11457-3 0 9996 2 36799 98.2016 155.1438 0013100 133.1161 227.1155 14.91514728564088 JUGNU 1 37839U 11058B 20338.17011517 .00000331 00000-0 34634-4 0 9995 2 37839 19.9627 339.5888 0019168 88.4321 342.6409 14.12696915472679 SRMSAT 1 37841U 11058D 20337.56231926 .00000314 00000-0 27278-4 0 9995 2 37841 19.9731 51.0755 0011752 291.5054 96.3930 14.10679400472027 AO-71 1 37854U 11061E 20338.47899193 .00003171 00000-0 16392-3 0 9998 2 37854 101.7130 157.1635 0156757 279.0029 79.3471 15.07804065497399 HRBE 1 37855U 11061F 20338.46754879 .00002920 00000-0 14908-3 0 9991 2 37855 101.7263 154.2165 0169307 293.1829 65.1628 15.06829515497127 HORYU-2 1 38340U 12025D 20338.15902605 .00000415 00000-0 68236-4 0 9991 2 38340 98.2601 35.5952 0010766 217.2479 142.7984 14.75933527449432 RS-40 1 38735U 12041C 20338.13308264 .00000005 00000-0 -37247-4 0 9990 2 38735 82.4777 255.4709 0017075 150.2181 209.9878 12.42580382378807 BEESAT-3 1 39135U 13015F 20338.45021145 .00003677 00000-0 18520-3 0 9991 2 39135 64.8680 115.4816 0022172 213.0869 146.8872 15.18639509421262 BEESAT-2 1 39136U 13015G 20338.16988992 .00003469 00000-0 17713-3 0 9994 2 39136 64.8771 121.9906 0032946 264.5610 95.1758 15.18031602420720 ZACUBE-1 1 39417U 13066B 20338.23769669 .00000635 00000-0 85084-4 0 9997 2 39417 97.5759 326.9702 0060239 84.5834 276.2248 14.81369546380020 TRITON-1 1 39427U 13066M 20338.58044689 .00000427 00000-0 76001-4 0 9992 2 39427 97.7500 290.3210 0112131 257.0954 101.7708 14.68106395376668 GOMX-1 1 39430U 13066Q 20338.67040805 .00000705 00000-0 13572-3 0 9994 2 39430 97.8042 267.0727 0151414 12.0295 348.4456 14.59488932374480 LO-74 1 39440U 13066AA 20337.94701662 .00000431 00000-0 66221-4 0 9995 2 39440 97.6513 311.3184 0080600 152.2921 208.2619 14.76105419377430 AO-73 1 39444U 13066AE 20337.93486981 .00000683 00000-0 89324-4 0 9990 2 39444 97.5683 328.9945 0059316 77.1596 283.6237 14.82244880378328 SPROUT 1 39770U 14029E 20338.55445793 .00002182 00000-0 24349-3 0 9998 2 39770 97.9072 84.2319 0009833 127.5801 232.6279 14.88032224354205 DUCHIFAT-1 1 40021U 14033M 20338.13182625 .00001012 00000-0 10792-3 0 9998 2 40021 97.9551 270.4919 0014262 90.7414 269.5438 14.91078264351027 NANOSATCBR1 1 40024U 14033Q 20337.84701406 .00000877 00000-0 96238-4 0 9990 2 40024 97.9370 266.0126 0013541 96.2675 264.0085 14.90219629350836 DTUSAT-2 1 40030U 14033W 20338.05105026 .00000688 00000-0 79360-4 0 9994 2 40030 97.9078 259.4514 0013268 99.3933 260.8785 14.88826208350095 EO-80 1 40032U 14033Y 20338.34436409 .00000726 00000-0 83545-4 0 9993 2 40032 97.9085 259.7482 0013199 99.3538 260.9171 14.88779131350638 ANTELSAT 1 40034U 14033AA 20338.12716174 .00000495 00000-0 80064-4 0 9997 2 40034 97.6928 185.5645 0058645 172.2450 187.9680 14.74348394346736 VELOX-1 1 40057U 14034E 20338.69080624 .00000745 00000-0 11095-3 0 9994 2 40057 98.3021 120.5502 0010112 329.2253 30.8362 14.77998341346623 DAURIA DX 1 1 40071U 14037C 20338.64873819 .00000313 00000-0 47580-4 0 9994 2 40071 98.4584 166.4638 0007746 322.6538 37.4139 14.81422553346307 HODOYOSHI-1 1 40299U 14070B 20338.64384581 .00001898 00000-0 80344-4 0 9990 2 40299 97.3091 51.3354 0011992 326.0858 137.8819 15.24325428337589 CHUBUSAT-1 1 40300U 14070C 20338.23237245 .00001965 00000-0 86674-4 0 9999 2 40300 97.2707 42.1905 0019427 343.8570 53.2674 15.22784636337199 QSAT-EOS 1 40301U 14070D 20338.63278226 .00004907 00000-0 18301-3 0 9998 2 40301 97.2780 49.1208 0023474 311.5389 152.4883 15.27625992337751 FIREBIRD FU3 1 40377U 15003B 20338.20410679 .00006317 00000-0 23658-3 0 9999 2 40377 99.0853 72.8913 0122310 110.0583 251.3861 15.20967858322941 FIREBIRD FU4 1 40378U 15003C 20338.31773147 .00005637 00000-0 21127-3 0 9997 2 40378 99.0855 73.1403 0122455 109.5382 251.9120 15.21002234322978 GRIFEX 1 40379U 15003D 20338.50882513 .00004535 00000-0 18737-3 0 9996 2 40379 99.0875 64.2417 0131887 137.0633 224.0981 15.17043919322472 NO-84 1 40654U 15025D 20337.27436894 .00031225 00000-0 31225-3 0 1159 2 40654 54.9859 244.6667 0098135 264.9313 94.0494 15.59408012195156 DEORBITSAIL 1 40719U 15032E 20338.18108024 .00000869 00000-0 12976-3 0 9993 2 40719 97.8490 222.4684 0017088 26.4718 333.7362 14.77153381291009 NUDT-PHONESAT 1 40900U 15049B 20338.61805765 .00006600 00000-0 26693-3 0 9997 2 40900 97.4266 348.1570 0014020 106.5357 39.2551 15.24969769288967 XW-2A 1 40903U 15049E 20338.65832604 .00005820 00000-0 12963-3 0 9994 2 40903 97.2664 27.5838 0013264 16.1555 82.4171 15.43917188292579 XW-2C 1 40906U 15049H 20338.66573957 .00002038 00000-0 10830-3 0 9990 2 40906 97.4815 337.5917 0015416 141.2358 330.3900 15.16331946287892 XW-2D 1 40907U 15049J 20338.62887350 .00001891 00000-0 99988-4 0 9990 2 40907 97.4804 337.2946 0015061 138.4593 315.8673 15.16595296287913 LILACSAT-2 1 40908U 15049K 20338.62743797 .00000804 00000-0 47547-4 0 9994 2 40908 97.4971 335.4132 0016351 151.0155 303.0853 15.14194043287590 XW-2E 1 40909U 15049L 20338.62447958 .00003053 00000-0 14946-3 0 9990 2 40909 97.4655 341.0332 0014601 128.0152 327.4555 15.18852689288201 XW-2F 1 40910U 15049M 20338.62980299 .00002968 00000-0 14739-3 0 9996 2 40910 97.4703 340.1159 0015690 127.2479 328.2746 15.18358221288008 XW-2B 1 40911U 15049N 20338.62140814 .00002000 00000-0 10583-3 0 9998 2 40911 97.4802 337.9836 0014912 139.3744 315.7373 15.16518382287808 DCBB 1 40912U 15049P 20338.62699257 .00003574 00000-0 16471-3 0 9998 2 40912 97.4471 344.4044 0016250 105.5323 34.0939 15.20806587288420 TW-1C 1 40926U 15051B 20338.63810411 .00119259 00000-0 67584-3 0 9993 2 40926 97.0600 32.3623 0004135 152.0096 311.1127 15.78714085293578 TW-1A 1 40928U 15051D 20338.66266561 .00008817 00000-0 19621-3 0 9995 2 40928 97.0952 2.3454 0008321 295.6570 198.6083 15.43826373291462 IO-86 1 40931U 15052B 20337.59532308 .00000723 00000-0 11540-4 0 9997 2 40931 5.9996 216.3621 0013173 137.2532 222.8743 14.76652285280156 LQSat 1 40958U 15057A 20338.58808066 .00000119 00000-0 26053-4 0 9992 2 40958 97.8326 36.2617 0017538 330.7112 29.3112 14.73143381277402 ATHENOXAT-1 1 41168U 15077C 20338.13104167 .00005010 00000-0 22451-3 0 9992 2 41168 14.9968 263.5011 0011365 317.9439 239.4011 15.14876995274951 ChubuSat-2 1 41338U 16012B 20338.42134029 .00000794 00000-0 54921-4 0 9995 2 41338 31.0047 352.3131 0013701 350.8066 9.2318 15.00389452263139 ChubuSat-3 1 41339U 16012C 20338.39778665 .00000851 00000-0 59116-4 0 9997 2 41339 31.0140 349.9004 0013750 358.5817 1.4773 15.00548448263128 Horyu-4 1 41340U 16012D 20338.41276102 .00001238 00000-0 86428-4 0 9997 2 41340 31.0063 335.7000 0013803 26.2073 333.9259 15.01657335263292 OUFTI-1 1 41458U 16025C 20337.92079021 .00002799 00000-0 14066-3 0 9998 2 41458 98.1217 97.6327 0161473 2.8424 357.3681 15.07533391252850 e-st@r-II 1 41459U 16025D 20338.61511142 .00003409 00000-0 17209-3 0 9992 2 41459 98.1198 97.6335 0162675 2.7733 357.4379 15.07048704252916 AAUSAT4 1 41460U 16025E 20338.61409510 .00004863 00000-0 23520-3 0 9997 2 41460 98.1195 100.6046 0150776 349.3810 10.4214 15.09625984253158 LO-87 1 41557U 16033B 20338.65797632 .00004364 00000-0 15948-3 0 9993 2 41557 97.4015 67.7995 0012627 202.7950 263.3763 15.28558884251615 NuSat2 1 41558U 16033C 20338.66322553 .00004820 00000-0 16526-3 0 9991 2 41558 97.4089 70.7664 0011667 197.7567 268.8294 15.30602225251761 Lapan A3 1 41603U 16040E 20338.68590263 .00000506 00000-0 26600-4 0 9999 2 41603 97.2870 26.7118 0012851 336.8231 180.7946 15.19917370246849 Swayam 1 41607U 16040J 20338.15415396 .00004141 00000-0 16931-3 0 9992 2 41607 97.2965 33.3937 0011655 317.2562 42.7769 15.24843839247128 Pratham 1 41783U 16059A 20338.39620810 .00000140 00000-0 36165-4 0 9999 2 41783 97.9946 28.9052 0034429 142.4389 217.9228 14.63093133223582 AlSat 1N 1 41789U 16059G 20338.60909693 .00000216 00000-0 49599-4 0 9997 2 41789 97.9990 32.3327 0029408 128.2872 232.0985 14.64366267223783 ScatSat 1 41790U 16059H 20338.63452968 .00000067 00000-0 28488-4 0 9998 2 41790 98.3961 15.2951 0006270 111.7887 248.3975 14.50797252221757 TY-1 1 41844U 16066D 20338.66685115 .00002527 00000-0 10319-3 0 9997 2 41844 97.4015 344.9665 0016497 105.8039 29.9015 15.25205917226057 Pegasus-1 1 41846U 16066F 20338.11527093 .00000590 00000-0 98017-4 0 9999 2 41846 98.6400 29.7535 0367536 90.8206 273.5102 14.37886901213203 CAS-2T 1 41847U 16066G 20338.14001977 .00000212 00000-0 41280-4 0 9992 2 41847 98.6319 30.1596 0366579 86.1496 278.1513 14.38120967213662 EO-88 1 42017U 17008BX 20337.85902491 .00004502 00000-0 17189-3 0 9993 2 42017 97.3419 42.8403 0007779 87.9181 272.2949 15.27125572211246 CAS-4B 1 42759U 17034B 20338.64446013 .00000836 00000-0 63948-4 0 9997 2 42759 43.0172 177.3829 0010319 9.5505 98.4387 15.09983542191546 CAS-4A 1 42761U 17034D 20338.64616913 .00000815 00000-0 62574-4 0 9999 2 42761 43.0169 176.5611 0010683 11.1508 97.5167 15.10063124191544 UCLSat 1 42765U 17036A 20338.12912361 .00003508 00000-0 14734-3 0 9990 2 42765 97.2790 27.6707 0012076 144.6356 215.5685 15.24027086192261 NIUSat 1 42766U 17036B 20338.44852769 .00002543 00000-0 11366-3 0 9997 2 42766 97.2786 24.9798 0016347 141.2958 218.9453 15.22104038191397 LituanicaSAT 2 1 42768U 17036D 20338.09709231 .00006062 00000-0 24567-3 0 9992 2 42768 97.2856 27.9164 0015533 136.3532 223.8938 15.24901818191538 Aalto 1 1 42775U 17036L 20338.09286372 .00002208 00000-0 98967-4 0 9990 2 42775 97.2763 24.9570 0014795 141.0841 219.1464 15.22158490191323 URSA MAIOR 1 42776U 17036M 20338.38923575 .00002287 00000-0 10178-3 0 9990 2 42776 97.2776 25.6050 0014603 139.7967 220.4353 15.22375915191381 Max Valier Sat 1 42778U 17036P 20338.41944306 .00002577 00000-0 11227-3 0 9999 2 42778 97.2835 27.2051 0013186 141.7594 218.4580 15.23001664191446 Pegasus 1 42784U 17036V 20338.38707102 .00002932 00000-0 12485-3 0 9995 2 42784 97.2795 27.5403 0012648 145.3106 214.8959 15.23678846191490 NUDATSat 1 42787U 17036Y 20338.61698331 .00005343 00000-0 21508-3 0 9992 2 42787 97.2839 29.5781 0011705 138.5825 221.6304 15.25230746191471 SUCHAI 1 1 42788U 17036Z 20338.14966229 .00003977 00000-0 16520-3 0 9994 2 42788 97.2805 28.0646 0012201 143.8199 216.3866 15.24315808191571 SKCUBE 1 42789U 17036AA 20338.14920882 .00003711 00000-0 15526-3 0 9991 2 42789 97.2799 27.8605 0012092 144.1748 216.0303 15.24119106191484 VZLUSAT 1 1 42790U 17036AB 20338.14879066 .00004707 00000-0 19000-3 0 9997 2 42790 97.2828 29.1139 0011636 141.1715 219.0361 15.25196205191551 VENTA 1 1 42791U 17036AC 20338.12585271 .00003475 00000-0 14568-3 0 9993 2 42791 97.2796 27.8692 0011758 144.5659 215.6362 15.24094333191476 Robusta 1B 1 42792U 17036AD 20338.14673049 .00003734 00000-0 15528-3 0 9992 2 42792 97.2801 28.1648 0011681 144.1506 216.0518 15.24326778191515 D-SAT 1 42794U 17036AF 20338.05553151 .00000416 00000-0 41049-4 0 9997 2 42794 97.4779 2.2282 0126500 161.4584 199.1308 14.91381941187783 TechnoSat 1 42829U 17042E 20338.38730293 .00000421 00000-0 47557-4 0 9999 2 42829 97.4940 211.9862 0015753 82.3251 277.9756 14.91175126184464 QIKCOM-1 1 42983U 98067NF 20338.81824955 .00009711 00000-0 10879-3 0 9990 2 42983 51.6359 170.8201 0002879 338.7783 21.3091 15.63422228176769 AO-91 1 43017U 17073E 20338.18373858 .00001223 00000-0 10036-3 0 9993 2 43017 97.7164 243.8492 0255114 220.2428 137.9654 14.79189842164101 EcAMSat 1 43019U 98067NG 20338.74718036 .00023509 00000-0 19431-3 0 9999 2 43019 51.6389 150.1858 0002729 321.0051 39.0750 15.70170271259350 PICSAT 1 43132U 18004X 20338.11954348 .00003937 00000-0 16066-3 0 9991 2 43132 97.4315 48.3175 0009589 170.8956 189.2458 15.24971744160759 AO-92 1 43137U 18004AC 20338.19563791 .00003167 00000-0 13143-3 0 9990 2 43137 97.4297 48.0896 0009170 172.4258 187.7120 15.24551711160745 TianYi 2 1 43155U 18008A 20338.66283205 .00002720 00000-0 16196-3 0 9990 2 43155 97.4299 43.2928 0015917 286.4072 176.7679 15.11943048158485 Zhou Enlai 1 43156U 18008B 20338.67641799 .00002250 00000-0 13638-3 0 9994 2 43156 97.4336 43.1438 0013068 286.3332 176.4288 15.11510381158434 TianYi 6 1 43158U 18008D 20338.27270992 .00001843 00000-0 11397-3 0 9992 2 43158 97.4269 41.5933 0012362 287.1835 113.6995 15.11005553158311 S-Net D 1 43186U 18014G 20337.50576915 .00000785 00000-0 73338-4 0 9997 2 43186 97.6862 242.5112 0011925 29.4915 330.6977 14.96912216154834 S-Net B 1 43187U 18014H 20338.30777435 .00000617 00000-0 58758-4 0 9990 2 43187 97.6860 243.2729 0011856 26.7740 333.4092 14.96912993154958 S-Net A 1 43188U 18014J 20338.30766511 .00000618 00000-0 58801-4 0 9994 2 43188 97.6863 243.3092 0011847 26.9164 333.2670 14.96912150154953 S-Net C 1 43189U 18014K 20338.17446643 .00000619 00000-0 58904-4 0 9996 2 43189 97.6859 243.1360 0011845 27.1606 333.0233 14.96911872153487 FMN 1 1 43192U 18015A 20338.65117579 .00007174 00000-0 27689-3 0 9995 2 43192 97.4641 107.6399 0014671 208.7197 277.4812 15.26495720157702 Shaonian Xing 1 43199U 18015H 20338.63605012 .00005450 00000-0 21142-3 0 9997 2 43199 97.4426 105.4326 0015507 219.3075 261.7101 15.26426882157764 UBAKUSAT 1 43467U 98067NQ 20338.43389061 .00285334 44615-4 59153-3 0 9999 2 43467 51.6273 123.3460 0004939 301.7374 58.3154 15.98628928146868 EQUISat 1 43552U 98067PA 20338.42341629 .00314399 51552-4 67486-3 0 9991 2 43552 51.6244 131.6097 0004638 309.4625 50.5973 15.97993474136940 SiriusSat 1 1 43595U 98067PG 20336.93934113 .00499585 13510-3 56251-3 0 9998 2 43595 51.6154 139.4484 0008862 213.0965 150.2840 16.08623430131551 SiriusSat 2 1 43596U 98067PH 20337.50611269 .00532942 15530-3 57179-3 0 9996 2 43596 51.5972 137.2258 0003044 273.3097 86.7175 16.09445311131630 SurfSat 1 43614U 18070B 20338.46038841 .00007049 00000-0 17435-3 0 9997 2 43614 93.0280 224.6098 0017077 50.8101 309.4667 15.40319465124482 CP-7 DAVE 1 43615U 18070C 20338.18557004 .00007109 00000-0 17703-3 0 9999 2 43615 93.0283 224.4743 0017273 51.4311 308.8488 15.40107147124430 ELFIN-B 1 43616U 18070D 20338.18604779 .00010381 00000-0 24284-3 0 9990 2 43616 93.0241 224.4871 0017515 51.4376 308.8446 15.41973205124506 ELFIN-A 1 43617U 18070E 20338.19415583 .00012020 00000-0 27821-3 0 9997 2 43617 93.0298 225.1498 0016833 49.0122 311.2586 15.42296122124517 STARS-Me Mother 1 43640U 98067PQ 20338.35653328 .00041144 00000-0 30568-3 0 9997 2 43640 51.6315 168.2293 0002615 288.6356 71.4358 15.72411380123234 CubeBel 1 1 43666U 18083E 20338.67447654 .00003095 00000-0 15221-3 0 9995 2 43666 97.4746 3.3779 0016132 127.5725 9.9785 15.18661170116298 Changshagaoxin 1 43669U 18083H 20338.65062248 .00002397 00000-0 12242-3 0 9992 2 43669 97.4644 1.0293 0012017 120.5327 27.4318 15.17609060116187 Ten-Koh 1 43677U 18084G 20338.61785226 .00000475 00000-0 54681-4 0 9995 2 43677 97.9008 95.4625 0015146 324.5559 35.4651 14.90359231114134 PO-101 1 43678U 18084H 20338.58559561 .00000580 00000-0 63376-4 0 9991 2 43678 97.9030 97.1787 0009638 346.6835 13.4123 14.91683498114236 IRVINE 01 1 43693U 18088D 20338.45507856 .00007977 00000-0 32775-3 0 9993 2 43693 85.0330 325.0748 0018721 36.1527 324.0977 15.23852448114570 QO-100 1 43700U 18090A 20338.00510087 .00000164 00000-0 00000-0 0 9990 2 43700 0.0155 314.4821 0002023 323.1735 182.3240 1.00273586 7404 Reaktor Hello World 1 43743U 18096AA 20338.16673289 .00003841 00000-0 14324-3 0 9996 2 43743 97.4068 51.0875 0016075 249.7173 110.2339 15.27926800112154 MinXSS-2 1 43758U 18099A 20338.18363104 .00000562 00000-0 55384-4 0 9998 2 43758 97.6908 47.2315 0015224 350.4230 9.6699 14.95819096109170 AO-95 1 43770U 18099N 20338.17031764 .00000472 00000-0 48161-4 0 9990 2 43770 97.6899 46.4633 0014462 359.7657 0.3555 14.95121554109124 RANGE-B 1 43772U 18099Q 20338.16728682 .00000910 00000-0 87593-4 0 9992 2 43772 97.6974 47.1740 0013690 346.9831 13.1034 14.95356995109124 RANGE-A 1 43773U 18099R 20338.16496702 .00000358 00000-0 37833-4 0 9996 2 43773 97.6837 45.9635 0013113 347.4220 12.6671 14.95066456109110 MOVE-II 1 43780U 18099Y 20338.47110640 .00001567 00000-0 14608-3 0 9999 2 43780 97.6905 47.0946 0013073 356.1766 3.9353 14.95605968109172 SNUSat 2 1 43782U 18099AA 20338.16880736 .00000466 00000-0 47327-4 0 9999 2 43782 97.6896 46.7341 0012316 346.9179 13.1720 14.95379585109132 SnugLite 1 43784U 18099AC 20338.46014447 .00000733 00000-0 71287-4 0 9991 2 43784 97.6857 46.7990 0014687 352.2885 7.8108 14.95485248109198 ITASat 1 1 43786U 18099AE 20338.46439762 .00000738 00000-0 71778-4 0 9994 2 43786 97.6911 47.2920 0014763 351.5473 8.5497 14.95440115109193 EAGLET 1 1 43790U 18099AJ 20338.94862856 .00001053 00000-0 99314-4 0 9993 2 43790 97.6904 48.0967 0013141 355.4578 4.6522 14.95822805108980 ESEO 1 43792U 18099AL 20338.17112986 -.00000038 00000-0 17272-5 0 9999 2 43792 97.6876 47.0653 0013158 354.9686 5.1400 14.95657179108928 CSIM 1 43793U 18099AM 20338.15790102 .00001633 00000-0 14958-3 0 9997 2 43793 97.6887 47.1694 0012419 352.1775 7.9251 14.96265665108914 Astrocast 0.1 1 43798U 18099AS 20338.45231379 .00000410 00000-0 41674-4 0 9999 2 43798 97.6903 47.7458 0011791 335.7830 24.2835 14.95973398109215 JO-97 1 43803U 18099AX 20338.19017310 .00000699 00000-0 67946-4 0 9993 2 43803 97.6872 46.8049 0014778 352.4236 7.6760 14.95643337109159 Suomi 100 1 43804U 18099AY 20338.19256452 .00000739 00000-0 71551-4 0 9998 2 43804 97.6869 46.7875 0014826 352.6143 7.4857 14.95625304109165 Al Farabi 2 1 43805U 18099AZ 20338.21855691 .00001591 00000-0 14754-3 0 9990 2 43805 97.6890 46.9481 0014941 352.8910 7.2098 14.95785694109172 PWSat 2 1 43814U 18099BJ 20338.21526973 .00163929 00000-0 58467-2 0 9990 2 43814 97.7917 63.7580 0007400 280.9108 79.1297 15.28164992109316 CHOMPTT 1 43855U 18104G 20338.21754290 .00002812 00000-0 11614-3 0 9994 2 43855 85.0390 63.5156 0018686 144.4004 215.8490 15.23364278109217 ISAT 1 43879U 18111D 20338.55297312 .00001083 00000-0 10054-3 0 9998 2 43879 97.6922 243.1593 0014121 43.0598 317.1736 14.96391564103755 UWE-4 1 43880U 18111E 20338.50558877 .00001116 00000-0 10285-3 0 9994 2 43880 97.6955 243.4763 0013598 45.2599 314.9727 14.96642106103775 Sparrow 1 43881U 18111F 20338.48303749 .00001306 00000-0 11931-3 0 9998 2 43881 97.6954 243.5509 0013436 43.0531 317.1739 14.96682506103773 Lume 1 1 43908U 18111AJ 20338.18357611 .00003421 00000-0 13722-3 0 9992 2 43908 97.2497 233.0089 0019155 266.5444 93.3603 15.25494144107743 FO-98 1 43933U 19003B 20338.13230485 .00002074 00000-0 91753-4 0 9999 2 43933 97.2083 21.2229 0017964 12.9287 347.2407 15.22621773104195 FO-99 1 43937U 19003F 20338.17140011 .00003447 00000-0 14035-3 0 9994 2 43937 97.2046 23.0013 0023361 352.2811 7.8064 15.24894184104345 Delphini 1 1 44030U 98067PW 20338.37817259 .00089644 00000-0 52442-3 0 9990 2 44030 51.6299 172.0872 0000753 248.3485 111.7436 15.77597719105053 MYSat 1 1 44045U 18092F 20338.16282948 .00008461 00000-0 23360-3 0 9999 2 44045 51.6395 302.5483 0010394 211.1164 148.9205 15.37873097101232 AstroCast 0.2 1 44083U 19018F 20338.41650847 .00001918 00000-0 87167-4 0 9991 2 44083 97.4008 36.9503 0011628 303.9975 56.0156 15.21913373 93076 AISTechSat 3 1 44103U 19018AB 20338.65236189 .00002747 00000-0 11788-3 0 9995 2 44103 97.3891 37.4598 0012158 318.2599 144.6740 15.23508219 93195 AISat 1 1 44104U 19018AC 20338.16642392 .00002306 00000-0 74980-4 0 9994 2 44104 97.4476 48.7639 0056866 335.1371 24.7132 15.31429783 93625 Raavana-1 1 44329U 98067QE 20338.01868383 .00030917 00000-0 33924-3 0 9999 2 44329 51.6361 206.7435 0004299 254.6996 105.3524 15.62934850 83316 Uguisu 1 44330U 98067QF 20338.36258501 .00030964 00000-0 34148-3 0 9995 2 44330 51.6343 205.2450 0004343 255.4103 104.6410 15.62803648 83347 NepaliSat-1 1 44331U 98067QG 20338.00972876 .00031548 00000-0 34604-3 0 9991 2 44331 51.6337 206.6407 0004179 257.7246 102.3281 15.62933927 83309 Prox-1 1 44339U 19036A 20338.13815357 .00001425 00000-0 28720-3 0 9995 2 44339 23.9992 130.2961 0010762 196.9662 163.0469 14.53250721 76659 Oculus-ASR 1 44348U 19036K 20338.14198149 .00027386 00000-0 39777-3 0 9997 2 44348 28.5180 354.4571 0352253 311.3816 45.6989 15.06319320 79222 Armadillo 1 44352U 19036P 20338.37033358 .00040271 00000-0 56743-3 0 9997 2 44352 28.5327 343.1925 0332902 328.4741 29.6293 15.10880898 79300 NO-104 1 44354U 19036R 20338.28296541 .00029143 00000-0 41487-3 0 9998 2 44354 28.5328 349.1885 0348283 318.4236 39.0354 15.07554700 79276 NO-103 1 44355U 19036S 20338.18076942 .00060940 00000-0 78600-3 0 9996 2 44355 28.5303 329.6963 0311856 350.1117 9.3447 15.16931963 79461 CP9 1 44360U 19036X 20338.16300902 .00093836 -40266-5 93475-3 0 9997 2 44360 28.5102 299.8533 0274651 39.9695 322.0782 15.29339430 79630 Move-IIb 1 44398U 19038N 20338.18610459 .00004076 00000-0 23417-3 0 9996 2 44398 97.5576 297.5101 0023164 267.9724 91.8855 15.12855784 78082 SONATE 1 44400U 19038Q 20338.47204778 .00002066 00000-0 12282-3 0 9990 2 44400 97.5623 297.7809 0023354 264.7569 95.0989 15.12191999 78118 BeeSat 9 1 44412U 19038AC 20338.11137945 .00003107 00000-0 18052-3 0 9993 2 44412 97.5621 297.5753 0020817 271.0515 88.8330 15.12675668 77768 JAISAT-1 1 44419U 19038F 20338.14389527 .00002399 00000-0 13851-3 0 9992 2 44419 97.5624 298.0007 0019631 269.5836 90.3145 15.13159844 78101 LightSail-2 1 44420U 19036AC 20337.80229056 .00012007 00000-0 25359-2 0 9996 2 44420 24.0083 122.7199 0013209 211.4991 148.4711 14.57570054 74876 Taurus 1 1 44530U 19059C 20338.54594336 .00001349 00000-0 39255-3 0 9999 2 44530 98.5625 61.2174 0013989 18.8833 341.2853 14.45806121 64777 Duchifat 3 1 44854U 19089C 20338.27248381 .00001091 00000-0 94204-4 0 9997 2 44854 36.9658 180.5699 0009461 343.3747 16.6686 14.99230238 53645 OPS-SAT 1 44878U 19092F 20338.44868533 .00003130 00000-0 16651-3 0 9998 2 44878 97.4684 158.9351 0015174 126.8988 233.3638 15.15891649 53132 TO-108 1 44881U 19093C 20338.59142599 .00000154 00000-0 26533-4 0 9990 2 44881 97.9449 53.3661 0014180 203.7014 156.3554 14.81414325 51732 FloripaSat 1 1 44885U 19093G 20338.58176339 .00000688 00000-0 93121-4 0 9991 2 44885 97.9458 53.6757 0013938 213.9782 146.0547 14.82139877 51757 RS-44 1 44909U 19096E 20338.15454998 .00000034 00000-0 92976-4 0 9996 2 44909 82.5230 243.2087 0217051 191.8193 167.7768 12.79707685 43766 SwampSat-2 1 45115U 19071E 20338.12348581 .00042200 00000-0 10331-2 0 9990 2 45115 51.6404 263.2245 0008851 312.5318 47.4918 15.40307798 47061 HO-107 1 45119U 19071J 20338.01100370 .00006452 00000-0 20152-3 0 9996 2 45119 51.6429 268.3964 0011259 303.3034 56.6870 15.34399834 46990 Phoenix 1 45258U 98067RB 20338.12612019 .00012830 00000-0 21009-3 0 9991 2 45258 51.6399 228.4638 0005239 238.0175 122.0306 15.52849988 44660 AztechSat-1 1 45261U 98067RE 20338.09923406 .00028640 00000-0 41207-3 0 9994 2 45261 51.6389 226.0477 0006062 253.4029 106.6297 15.55802835 44729 QARMAN 1 45263U 98067RG 20338.10315451 .00022899 00000-0 34790-3 0 9992 2 45263 51.6394 227.5704 0005845 250.9894 109.0464 15.54449278 44737 Quetzal 1 1 45598U 98067RL 20338.08763882 .00021087 00000-0 33459-3 0 9994 2 45598 51.6404 229.7215 0001859 18.5343 341.5715 15.53316844 33976 BY70-2 1 45857U 20042B 20338.96387658 .00002348 00000-0 34400-3 0 9996 2 45857 98.0018 50.6594 0012603 122.7810 237.4575 14.76509205 22690 UPMSat 2 1 46276U 20061E 20338.95221907 .00001188 00000-0 65007-4 0 9995 2 46276 97.4550 50.4630 0001284 33.3041 326.8273 15.16163065 13913 AmicalSat 1 46287U 20061R 20338.12952465 .00001546 00000-0 98785-4 0 9993 2 46287 97.5103 49.5144 0004026 66.2596 293.9056 15.10088816 13711 SALSAT 1 46495U 20068K 20338.11280628 .00000754 00000-0 60046-4 0 9994 2 46495 97.6739 271.0048 0018158 19.6179 340.5747 15.03263644 9833 BY70-3 1 46839U 20079N 20338.63072333 .00005986 00000-0 19395-3 0 9999 2 46839 97.2639 50.3264 0007556 175.4198 290.7927 15.32350999 4204 Bobcat-1 1 46921U 98067RR 20338.97145171 .00013228 00000-0 23325-3 0 9997 2 46921 51.6421 228.1150 0002989 82.4146 277.7183 15.50737152 4482 SPOC 1 46922U 98067RS 20337.93945700 .00017344 00000-0 30172-3 0 9990 2 46922 51.6426 233.2223 0002831 85.5045 274.6268 15.50878302 4296 Neutron-1 1 46923U 98067RT 20338.19961795 .00013161 00000-0 23300-3 0 9990 2 46923 51.6423 231.9593 0002986 91.1701 268.9630 15.50627239 4393 /EX
